sat.trackr.live / text

‹ back to catalog

STARLINK-30378

NORAD 57787 · 2023-134S

PAYLOAD ACTIVE UNKNOWN

§ Identity

Operator
Country
US
Launch date
2023-09-04
Launch site
AFETR
Launch vehicle
Mass (kg)
RCS (m²)

Purposes: comms

External: N2YO · Heavens-Above · Gunter

§ Orbital elements

Epoch: 2026-09-19T11:41:15.859968Z

Period
94.27 min
Inclination
43.0031°
Eccentricity
0.0000299
Mean motion
15.27574041 rev/d
Perigee alt
482.9 km
Apogee alt
483.3 km
Semi-major
6,861.2 km
B*
3.5363e-5
RAAN
180.1860°
Arg perigee
278.9693°
Mean anomaly
81.1125°
Rev number
16,914

§ Raw data

STARLINK-303781 57787U 23134S   26262.48698912  .00000711  00000+0  35363-4 0  99942 57787  43.0031 180.1860 0000299 278.9693  81.1125 15.27574041169140

JSON: /api/v1/satellites/57787 · /tle

For live sub-satellite position, see the globe view (requires WebGL).

§ Visibility from observer

Set your observer location to see the next 7 days of passes ≥ 10°. The values pass through the URL so the page stays shareable.

No JS? Fill the form by hand. The geolocation button needs JavaScript.